Location: Newark
(48.1500°N, 2.9667°W)
Time: 17:47:03
(UTC+00:00)

Altair - Pass Details

Date: 27 January 2020
Orbit: 1502 x 1682 km, 47.2° (Epoch: 22 February)

Event Time Altitude Azimuth Distance (km) Brightness Sun altitude
Rises 08:57:57 0° 238° (WSW) 4,871 10.0 8.9°
Reaches altitude 10° 09:01:05 10° 236° (SW) 3,903 9.5 9.3°
Maximum altitude 09:11:01 67° 156° (SSE) 1,791 8.4 10.6°
Drops below altitude 10° 09:21:03 10° 77° (ENE) 3,942 10.2 11.7°
Sets 09:24:13 0° 75° (ENE) 4,922 10.6 12.1°
